Погода в Межгорье

Россия / Республика Крым     44°58′36″N   34°24′48″E
темп.,
°C
ветер,
м/с
пор.,
м/с
влажн.,
%
обл.,
%
осадки,
мм/ч
давл.,
гПа
погр.,
м
17 мая, пн
пн1700:00+14ю12949 0.9 100236
03:00+13юз22940 0.9 100220
06:00+13зюз22930 0.1 100344
09:00+16зюз568797 0.2 1005508
12:00+15зюз7108886 0.1 1007552
15:00+16зюз5776100 0.2 1007647
18:00+15зюз467681 0.1 1008592
21:00+13ю228771 0.7 100941
18 мая, вт
вт1800:00+12ю229413 1.6 100952
03:00+11ю33924 1.6 100842
06:00+11ю3389100 0.0 100864
09:00+15ююв3577100 0.1 1008374
12:00+12ююв379199 1.4 1009321
15:00+18ю586221 1.6 10081019
18:00+18зюз596754 0.3 10071178
21:00+12юз4878100 0.3 1008302
19 мая, ср
ср1900:00+11ююз498052 0.0 1009246
03:00+11ююз511770 0.0 1008425
06:00+10юз6148420 0.0 1009769
09:00+12юз8138396 0.0 10101061
12:00+11зюз81391100 0.3 1011988
15:00+12зюз8148683 0.4 10131047
18:00+14з712746 0.1 10141197
21:00+11юз510760 0.1 1015247
20 мая, чт
чт2000:00+10ююз45720 0.0 101674
03:00+10ю33685 0.0 101532
06:00+10ююв33725 0.0 101542
09:00+17юв475199 0.0 1014625
12:00+19ююв57389 0.0 1013849
15:00+19ююв57430 0.0 1013771
18:00+17ююв410490 0.0 1012503
21:00+12ююв45520 0.0 101384
21 мая, пт
пт2100:00+13ююв45495 0.0 101168
03:00+14ююв344698 0.0 101148
06:00+15ююв33515 0.0 101131
09:00+23вюв24363 0.0 1010375
12:00+27юв57253 0.0 1010974
15:00+27юв47233 0.0 1009905
18:00+24вюв35405 0.0 1008236
21:00+18юв33390 0.0 100927